Time,TemperatureF,DewpointF,PressureIn,WindDirection,WindDirectionDegrees,WindSpeedMPH,WindSpeedGustMPH,Humidity,HourlyPrecipIn,Conditions,Clouds,dailyrainin,SoftwareType,DateUTC
2013-04-22 00:00:00,47.0,-99.9,-100.00,NNE,24,3.0,-999.0,-999,-99.99,,,-99.99,,2013-04-22 07:00:00,
2013-04-22 01:00:00,47.0,-99.9,-100.00,North,2,5.0,-999.0,-999,-99.99,,,-99.99,,2013-04-22 08:00:00,
2013-04-22 02:00:00,47.0,-99.9,-100.00,North,3,6.0,-999.0,-999,-99.99,,,-99.99,,2013-04-22 09:00:00,
2013-04-22 03:00:00,45.0,-99.9,-100.00,NNE,25,3.0,-999.0,-999,-99.99,,,-99.99,,2013-04-22 10:00:00,
2013-04-22 04:00:00,43.0,-99.9,-100.00,NNE,31,2.0,-999.0,-999,-99.99,,,-99.99,,2013-04-22 11:00:00,
2013-04-22 05:00:00,41.0,-99.9,-100.00,NNE,30,2.0,-999.0,-999,-99.99,,,-99.99,,2013-04-22 12:00:00,
2013-04-22 06:00:00,43.0,-99.9,-100.00,NNE,24,2.0,-999.0,-999,-99.99,,,-99.99,,2013-04-22 13:00:00,
2013-04-22 07:00:00,43.0,-99.9,-100.00,NNE,26,5.0,-999.0,-999,-99.99,,,-99.99,,2013-04-22 14:00:00,
2013-04-22 08:00:00,47.0,-99.9,-100.00,NNE,30,5.0,-999.0,-999,-99.99,,,-99.99,,2013-04-22 15:00:00,
2013-04-22 10:00:00,52.0,-99.9,-100.00,NNW,348,6.0,-999.0,-999,-99.99,,,-99.99,,2013-04-22 17:00:00,
2013-04-22 11:00:00,53.0,-99.9,-100.00,NW,309,7.0,-999.0,-999,-99.99,,,-99.99,,2013-04-22 18:00:00,
2013-04-22 12:00:00,54.0,-99.9,-100.00,NW,306,8.0,-999.0,-999,-99.99,,,-99.99,,2013-04-22 19:00:00,
2013-04-22 14:00:00,57.0,-99.9,-100.00,NW,316,12.0,-999.0,-999,-99.99,,,-99.99,,2013-04-22 21:00:00,
2013-04-22 15:00:00,58.0,-99.9,-100.00,NW,306,9.0,-999.0,-999,-99.99,,,-99.99,,2013-04-22 22:00:00,
2013-04-22 16:00:00,59.0,-99.9,-100.00,NW,320,12.0,-999.0,-999,-99.99,,,-99.99,,2013-04-22 23:00:00,
2013-04-22 17:00:00,60.0,-99.9,-100.00,NW,322,12.0,-999.0,-999,-99.99,,,-99.99,,2013-04-23 00:00:00,
2013-04-22 18:00:00,61.0,-99.9,-100.00,NNW,337,8.0,-999.0,-999,-99.99,,,-99.99,,2013-04-23 01:00:00,
2013-04-22 19:00:00,60.0,-99.9,-100.00,NNW,344,7.0,-999.0,-999,-99.99,,,-99.99,,2013-04-23 02:00:00,
2013-04-22 20:00:00,57.0,-99.9,-100.00,NNW,343,7.0,-999.0,-999,-99.99,,,-99.99,,2013-04-23 03:00:00,
2013-04-22 21:00:00,54.0,-99.9,-100.00,NW,312,5.0,-999.0,-999,-99.99,,,-99.99,,2013-04-23 04:00:00,
2013-04-22 22:00:00,53.0,-99.9,-100.00,NW,324,5.0,-999.0,-999,-99.99,,,-99.99,,2013-04-23 05:00:00,
2013-04-22 23:00:00,50.0,-99.9,-100.00,NE,51,2.0,-999.0,-999,-99.99,,,-99.99,,2013-04-23 06:00:00,